Regional Weather Roundup
Issued by NWS Wakefield, VA

Home | Current Version | Previous Version | Text Only | Print | Product List | Glossary Off
Versions: 1 2 3 4 5 6 7 8 9 10 11 12 13 14 15 16 17 18 19 20 21 22 23 24 25 26 27 28 29 30 31 32 33 34 35 36 37 38 39 40 41 42 43 44 45 46 47 48 49 50

000
ASUS41 KAKQ 191910
RWRAKQ

REGIONAL WEATHER ROUNDUP
NATIONAL WEATHER SERVICE WAKEFIELD VA
300 PM EDT FRI SEP 19 2014

Note: "fair" indicates few or no clouds below 12,000 feet with no
significant weather and/or obstructions to visibility. * = Denotes
station may not report precipitation (e.g., rain,snow,etc.),
thunder or fog.

VAZ042-051-052>054-056-192000-
NORTHERN VIRGINIA

CITY           SKY/WX    TMP DP  RH WIND       PRES   REMARKS
WASH NATIONAL  PTSUNNY   76  54  46 E6        30.26S
DULLES         PTSUNNY   70  55  59 VRB7      30.25F
FORT BELVOIR   MOSUNNY   72  57  59 VRB3      30.26S
QUANTICO       MOSUNNY   75  58  55 N8        30.25F
FREDERICKSBRG* MOSUNNY   76  60  56 NE6       30.22F
STAFFORD*      MOSUNNY   74  58  58 E8        30.28S
WARRENTON      CLOUDY    75  61  61 SE6       30.24S
CULPEPER*      PTSUNNY   75  55  50 E3        30.24F
MANASSAS*      NOT AVBL
LEESBURG*      CLOUDY    73  59  60 E6        30.26F
WINCHESTER     CLOUDY    70  52  52 E7        30.25S
FRONT ROYAL*   CLOUDY    70  57  64 E8        30.24S
LURAY*         CLOUDY    73  57  56 SW9       30.24S
$$

VAZ048-049-060>072-079>083-192000-
CENTRAL AND SOUTH CENTRAL VIRGINIA...AND NORTH CENTRAL NORTH CAROLINA

CITY           SKY/WX    TMP DP  RH WIND       PRES   REMARKS
RICHMOND       PTSUNNY   78  54  43 SE5       30.22F
CHESTERFIELD*  CLOUDY   N/A N/A N/A SE6       30.24F
PETERSBURG*    PTSUNNY   75  55  49 NE3       30.23F
HANOVER        MOSUNNY   76  57  51 VRB6      30.24F
TAPPAHANNOCK*  MOSUNNY   77  53  43 E6        30.23F
CHARLOTTSVILLE CLOUDY    69  57  65 CALM      30.25F
ORANGE*        PTSUNNY   72  59  64 W3        30.26F
LOUISA*        PTSUNNY   73  59  60 CALM      30.23S
FARMVILLE*     CLOUDY    70  59  68 N6        30.22F
CREWE*         MOCLDY    72  60  66 E5        30.23F
FORT PICKETT*  MOCLDY    71  61  70 NE6       30.23S
LUNENBURG*     CLOUDY    73  61  66 E3        30.22F
SOUTH HILL*    SUNNY     75  63  64 CALM      30.26F
LAWRENCEVILLE* CLOUDY    73  63  72 E5        30.22S
ROANOKE RAPIDS PTCLDY    75  59  57 E7        30.19F
RALEIGH        MOSUNNY   79  58  48 E10G16    30.18S
$$

VAZ088>098-192000-
SOUTHEAST VIRGINIA

CITY           SKY/WX    TMP DP  RH WIND       PRES   REMARKS
NORFOLK        SUNNY     76  57  51 NE12      30.22S
VIRGINIA BEACH MOSUNNY   76  58  53 E12       30.22R
NORFOLK NAVAL  MOSUNNY   77  57  50 E13       30.24R
WEST POINT*    MOSUNNY   77  59  54 E6        30.24S
NEWPORT NEWS   MOSUNNY   80  59  48 E10       30.22F
LANGLEY AFB    SUNNY     76  58  53 E8        30.22S
FORT EUSTIS    MOSUNNY   78  53  41 E7        30.20F
WILLIAMSBURG*  MOSUNNY   82  59  44 NE3       30.23S
HR EXEC AP*    PTCLDY    81  57  44 E5        30.23S
FRANKLIN*      CLOUDY    73  61  64 NE3       30.21F
WAKEFIELD      PTSUNNY   76  60  57 VRB6      30.22S
$$

VAZ020-022-025-037-045-192000-
WEST CENTRAL AND SOUTHWEST VIRGINIA

CITY           SKY/WX    TMP DP  RH WIND       PRES   REMARKS
STAUNTON*      CLOUDY    66  55  66 SW5       30.28S
HOT SPRINGS VA HVY RAIN  51  48  90 E3        30.31S VSB<1/4
LYNCHBURG      CLOUDY    63  59  87 NE8       30.27S
DANVILLE       CLOUDY    72  60  66 NE8       30.22S
SOUTH BOSTON*  NOT AVBL
MARTINSVILLE   CLOUDY    66  62  86 NE6       30.26R
ROANOKE        LGT RAIN  60  58  92 NE6       30.28S FOG
BLACKSBURG     CLOUDY    61  61 100 E8        30.27S
DUBLIN*        CLOUDY    64  62  93 E8        30.25S
MARION*        PTSUNNY   70  60  69 CALM      30.24R
HILLSVILLE*    CLOUDY    65  57  76 S6        30.25S
RICHLANDS*     MOCLDY    75  60  60 SE6       30.18F
WISE*          PTSUNNY   75  55  50 S12       30.18F
ABINGDON*      MOSUNNY   76  58  54 S12       30.16S
$$

MDZ021>025-VAZ099-100-192000-
SOUTHERN MARYLAND AND THE DELMARVA PENINSULA

CITY           SKY/WX    TMP DP  RH WIND       PRES   REMARKS
PATUXENT RIVER PTSUNNY   75  52  44 E7        30.25S
BAY BRIDGE APT   N/A     73  54  49 NE6       30.26S
LEONARDTOWN    CLOUDY    73  46  38 E6        30.26S
DOVER          SUNNY     73  58  60 E17       30.26S
GEORGETOWN     PTSUNNY   73  59  61 E20G26    30.27S
EASTON         MOSUNNY   73  59  60 E12       30.30R
CAMBRIDGE      MOSUNNY   75  59  57 E10G16    30.25R
SALISBURY      MOSUNNY   77  59  53 NE16      30.25R
OCEAN CITY     MOSUNNY   74  61  63 E15G22    30.25S
WALLOPS ISLAND PTSUNNY   73  59  61 E10       30.25S
ACCOMACK*      SUNNY     75  55  50 CALM      30.23S
$$

NCZ012>017-030>032-192000-
EASTERN NORTH CAROLINA

CITY           SKY/WX    TMP DP  RH WIND       PRES   REMARKS
ELIZABETH CITY SUNNY     77  58  51 E14       30.21S
AHOSKIE*       MOSUNNY   75  60  58 E5        30.20F
EDENTON*       MOSUNNY   78  60  55 E12G17    30.20S
CURRITUCK*     MOSUNNY   77  54  45 E10       30.23S
KILL DEVIL HLS SUNNY     77  57  50 E7G16     30.20S
MANTEO         SUNNY     76  58  54 NE15      30.20F
CAPE HATTERAS  PTSUNNY   73  63  70 NE10G22   30.17S
TARBORO*       MOCLDY    81  61  49 E10       30.19S
GOLDSBORO      NOT AVBL
WASHINGTON     SUNNY     79  59  51 NE12      30.18S
GREENVILLE     SUNNY     81  59  47 E14       30.18F
NEW BERN       MOSUNNY   80  57  45 E9        30.18S
WILMINGTON     PTSUNNY   79  66  64 E15G23    30.12F
$$

VAZ048-192000-
ELSEWHERE

CITY           SKY/WX    TMP DP  RH WIND       PRES   REMARKS
HARRISBURG PA  MOSUNNY   74  52  46 SE9       30.27F
BALTIMORE      MOSUNNY   73  56  54 E9        30.26F
ANNAPOLIS      SUNNY     72  58  61 NE6       30.26S
ANDREWS AFB    SUNNY     74  56  54 VRB6      30.26S
WILMINGTON DE  MOSUNNY   68  54  60 NE9       30.31S
PHILADELPHIA   PTSUNNY   71  52  50 E12       30.31S
WILDWOOD NJ*   PTSUNNY   72  55  56 NE17      30.30R
ATLANTIC CITY  PTSUNNY   69  56  62 NE20G25   30.30S
HENDERSON NC   PTSUNNY   74  59  59 NE9       30.20F
GREENSBORO     CLOUDY    74  61  63 E9        30.19S
ROCKY MOUNT    CLOUDY    81  59  47 E10G18    30.18S
FAYETTEVILLE   PTSUNNY   83  59  44 NE12      30.14F
CHARLOTTE      PTSUNNY   77  53  43 VRB7      30.16F
$$

VAZ100-192000-
MARINE

STATION/POSITION TIME  TEMP    WIND        PRES    WAVE   SWELL
                       AIR SEA DIR/SP/G            HT/PER HT/PER
                 (UTC) (F)     (DEG/KT/KT) (MB)    (FT/S) (FT/S)
44066 TX TWR #4  1900   65 72   60/ 17/ 21 1025.4R   6/ 7   2/10
CAPE MAY NJ      1900   68 76   70/ 13/ 21 1024.8S
LEWES DE         1900   68 73   70/ 19/ 23 1024.9R
15NM E FENWICK I 1900   70 72              1024.1R   5/ 5
OCEAN-CITY-INLET 1900   71 72   90/ 10/ 15 1024.1F
WACHAPREAGUE VA  1900   72 74  120/  4/  8 1023.7F
THOMAS POINT MD  1900   69 74   10/  7/  8 1025.6F
GOOSES REEF MD   1900   70     350/  6/  8 1024.9S
COVE POINT MD    1900   69     350/  9/ 10 1024.2F
SOLOMONS ISLAND  1900      76                N/A
BISHOPS HEAD MD  1900   75 73   40/  3/  5 1023.6S
PINEY POINT MD   1900          130/  5/  8   N/A
POTOMAC MD       1900   72      50/  6/  8 1023.5S
CAMBRIDGE MD     1900   72 74   70/ 12/ 17 1023.9R
LEWISETTA VA     1900   71 74   80/  6/  8 1023.7F
RAPPAHANNOCK LGT 1900          110/  5/  7 1024.4R
STINGRAY PT      1900   73      40/  4/  6   N/A
YORK RVR RNG VA  1900   73     130/  8/ 10 1023.2S
YORKTOWN VA      1900   73 76   90/  8/ 10 1023.3S
JAMESTOWN VA     1900   74     100/  6/ 10   N/A
DOMINION TERM VA 1900   74      70/  9/ 14 1023.6S
KIPTOPEKE VA     1900      80  140/  8/ 12   N/A
CHES BAY BRIDGE  1900   72 75   60/ 11/ 12 1023.2R
CAPE HENRY VA    1900   72      80/ 11/ 12 1022.4R
CHESAPEAKE LGHT  1800   71      60/ 12/ 13 1024.3F
WILLOUBY STN VA  1900   72      90/  8/ 10 1022.4R
S CRANEY ISL VA  1900           10/  9/ 11 1023.0S
CAPE HENRY BUOY  1800      76                N/A     3/ 8   2/11
1ST LANDING BUOY 1900   73      90/ 10/ 14 1023.1S
CAPE CHARLES BUO 1900      75                N/A     3/ 8   2/ 8
OFFSHORE WE BUOY 1900      75                N/A     3/ 8   3/ 8
64NM E OF VA BCH 1900   74 76   50/ 12/ 16 1022.7F   4/ 8   3/ 8
DUCK PIER NC     1900   73 75   60/ 14/ 16 1022.5S
44100 DUCK FRF   1900      75                N/A     4/ 5   2/11
44056 DUCK FRF   1900                        N/A     4/10   2/11
OREGON INLET NC  1900   75 73   30/ 14/ 16 1022.4S
HATTERAS NC      1900   75 75   50/ 10/ 17 1022.0F
DIAMOND SHLS NC  1900   78      60/ 17/ 21 1020.8F   5/ 7   2/10
CAPE LOOKOUT NC  1800   73      90/ 22/ 33 1021.0R
$$



USA.gov is the U.S. government's official web portal to all federal, state and local government web resources and services.